Prestonsburg, KY

1:16 AM EDT on May 22, 2018 (GMT -0400)
Prestonsburg

Weather History for KK22 - January, 2013

Change the Weather History Date:

Monday, January 14, 2013

  Actual Average (KJKL) Record (KJKL)
Temperature  
Mean Temperature 40 °F -  
Max Temperature 50 °F 40 °F 68 °F (1995)
Min Temperature 31 °F 24 °F 5 °F (1994)
Degree Days  
Heating Degree Days 24    
Moisture  
Dew Point 36 °F    
Average Humidity 93    
Maximum Humidity 100    
Minimum Humidity 83    
Precipitation  
Precipitation 0.00 in - - ()
Sea Level Pressure  
Sea Level Pressure 30.24 in    
Wind  
Wind Speed 6 mph (North)    
Max Wind Speed 12 mph    
Max Gust Speed 22 mph    
Visibility 8 miles    
Events Snow    
Averages and records for this station are not official NWS values.
T = Trace of Precipitation, MM = Missing Value Source: NWS Daily Summary

Daily Weather History Graph

Daily Weather History Graph

Search for Another Location

Airport or City:

Astronomy

Jan. 14, 2013 Rise Set
Actual Time 7:44 AM EST 5:34 PM EST
Civil Twilight 7:16 AM EST 6:03 PM EST
Nautical Twilight 6:43 AM EST 6:35 PM EST
Astronomical Twilight 6:12 AM EST 7:07 PM EST
Moon 9:22 AM EST (1/14) 9:14 PM EST (1/14)
Length of Visible Light 10h 47m
Length of Day
9h 49m
Waxing Crescent, 11% of the Moon is Illuminated
Jan 14
Waxing Crescent
Jan 18
First Quarter
Jan 26
Full
Feb 3
Last Quarter
Feb 10
New

Hourly Weather History & Observations

Time (EST) Temp. Windchill Dew Point Humidity Pressure Visibility Wind Dir Wind Speed Gust Speed Precip Events Conditions
12:15 AM 50.7 °F - 49.1 °F 94% 30.05 in 7.0 mi WNW 10.4 mph 17.3 mph N/A   Drizzle
12:35 AM 48.6 °F - 46.9 °F 94% 30.07 in 7.0 mi WNW 11.5 mph - N/A   Light Drizzle
12:55 AM 45.5 °F 39.9 °F 43.9 °F 94% 30.10 in 4.0 mi WNW 11.5 mph 18.4 mph N/A   Drizzle
1:15 AM 43.7 °F 39.1 °F 42.8 °F 97% 30.11 in 7.0 mi NW 8.1 mph 21.9 mph N/A   Light Drizzle
1:35 AM 42.4 °F 37.0 °F 41.4 °F 96% 30.12 in 5.0 mi NW 9.2 mph 16.1 mph N/A   Overcast
2:15 AM 41.9 °F - 41.5 °F 99% 30.15 in 3.0 mi Calm Calm - N/A   Overcast
2:35 AM 41.9 °F - 41.2 °F 97% 30.16 in 5.0 mi Calm Calm - N/A   Overcast
2:55 AM 41.7 °F 38.0 °F 41.2 °F 98% 30.17 in 2.5 mi WNW 5.8 mph - N/A   Overcast
3:35 AM 41.0 °F 36.4 °F 40.6 °F 99% 30.19 in 2.5 mi WNW 6.9 mph - N/A   Light Drizzle
3:55 AM 41.0 °F 37.1 °F 40.3 °F 97% 30.19 in 7.0 mi NW 5.8 mph - N/A   Overcast
4:15 AM 40.5 °F 36.5 °F 39.9 °F 98% 30.18 in 10.0 mi NW 5.8 mph - N/A   Overcast
4:35 AM 40.6 °F 37.5 °F 39.4 °F 95% 30.19 in 10.0 mi NW 4.6 mph - N/A   Overcast
4:55 AM 40.5 °F 37.3 °F 39.2 °F 95% 30.19 in 10.0 mi NW 4.6 mph - N/A   Overcast
5:15 AM 40.5 °F 38.4 °F 39.2 °F 95% 30.20 in 10.0 mi NNW 3.5 mph - N/A   Overcast
5:35 AM 40.5 °F 38.4 °F 39.4 °F 96% 30.21 in 10.0 mi NNW 3.5 mph - N/A   Overcast
5:55 AM 40.3 °F - 39.4 °F 97% 30.20 in 10.0 mi Calm Calm - N/A   Overcast
6:35 AM 39.7 °F 36.5 °F 38.1 °F 94% 30.22 in 10.0 mi North 4.6 mph - N/A   Overcast
6:55 AM 39.4 °F 36.1 °F 37.2 °F 92% 30.23 in 10.0 mi NNW 4.6 mph - N/A   Overcast
7:15 AM 39.2 °F 37.0 °F 37.2 °F 93% 30.24 in 10.0 mi NNW 3.5 mph - N/A   Overcast
7:35 AM 39.2 °F - 36.9 °F 91% 30.24 in 10.0 mi Calm Calm - N/A   Overcast
7:55 AM 38.8 °F - 37.2 °F 94% 30.25 in 10.0 mi Calm Calm - N/A   Overcast
8:15 AM 39.2 °F - 37.2 °F 93% 30.27 in 10.0 mi Calm Calm - N/A   Overcast
8:55 AM 38.8 °F 36.5 °F 37.4 °F 95% 30.28 in 10.0 mi NE 3.5 mph - N/A   Overcast
9:15 AM 38.8 °F 33.2 °F 37.0 °F 93% 30.28 in 10.0 mi NNE 8.1 mph - N/A   Overcast
9:55 AM 38.3 °F 31.9 °F 36.0 °F 91% 30.29 in 10.0 mi North 9.2 mph - N/A   Overcast
10:15 AM 37.6 °F 31.6 °F 35.1 °F 91% 30.30 in 10.0 mi North 8.1 mph - N/A   Overcast
10:35 AM 37.4 °F 32.8 °F 35.4 °F 93% 30.30 in 10.0 mi NNE 5.8 mph - N/A   Overcast
10:55 AM 37.4 °F 33.8 °F 35.6 °F 93% 30.30 in 10.0 mi North 4.6 mph - N/A   Overcast
11:15 AM 37.4 °F 34.9 °F 35.2 °F 92% 30.28 in 10.0 mi North 3.5 mph - N/A   Overcast
11:35 AM 37.6 °F 35.1 °F 35.6 °F 93% 30.28 in 10.0 mi NNE 3.5 mph - N/A   Overcast
11:55 AM 37.4 °F 31.4 °F 35.1 °F 91% 30.26 in 10.0 mi NNE 8.1 mph - N/A   Overcast
12:15 PM 37.6 °F 32.3 °F 35.4 °F 92% 30.24 in 10.0 mi North 6.9 mph - N/A   Overcast
12:35 PM 37.8 °F 31.8 °F 34.9 °F 89% 30.22 in 10.0 mi NE 8.1 mph - N/A   Overcast
1:15 PM 37.9 °F 32.7 °F 35.2 °F 90% 30.20 in 10.0 mi NNE 6.9 mph - N/A   Overcast
1:35 PM 37.9 °F 34.4 °F 35.1 °F 89% 30.19 in 10.0 mi NNE 4.6 mph - N/A   Overcast
1:55 PM 37.8 °F 33.3 °F 34.5 °F 88% 30.19 in 10.0 mi North 5.8 mph - N/A   Overcast
2:15 PM 37.9 °F 35.5 °F 34.9 °F 89% 30.20 in 10.0 mi North 3.5 mph - N/A   Overcast
2:35 PM 37.8 °F 34.2 °F 34.7 °F 89% 30.22 in 10.0 mi NNW 4.6 mph - N/A   Overcast
2:55 PM 37.8 °F 35.3 °F 34.9 °F 89% 30.21 in 10.0 mi North 3.5 mph - N/A   Overcast
3:15 PM 37.4 °F 32.8 °F 34.5 °F 89% 30.22 in 10.0 mi North 5.8 mph - N/A   Overcast
3:35 PM 36.7 °F 32.0 °F 34.7 °F 93% 30.24 in 4.0 mi North 5.8 mph - N/A   Overcast
3:55 PM 36.5 °F 31.8 °F 34.9 °F 94% 30.25 in 7.0 mi North 5.8 mph - N/A   Overcast
4:15 PM 36.5 °F 32.7 °F 33.6 °F 89% 30.24 in 10.0 mi North 4.6 mph - N/A   Overcast
4:35 PM 36.5 °F 32.7 °F 32.7 °F 86% 30.28 in 10.0 mi NNW 4.6 mph - N/A   Overcast
4:55 PM 36.7 °F 34.1 °F 32.2 °F 84% 30.30 in 10.0 mi North 3.5 mph - N/A   Overcast
5:15 PM 36.0 °F 29.0 °F 31.5 °F 84% 30.31 in 10.0 mi North 9.2 mph 16.1 mph N/A   Overcast
5:35 PM 35.6 °F 29.9 °F 31.1 °F 84% 30.34 in 10.0 mi North 6.9 mph - N/A   Overcast
5:55 PM 34.7 °F 27.5 °F 31.5 °F 88% 30.34 in 5.0 mi North 9.2 mph - N/A   Overcast
6:15 PM 34.0 °F 26.6 °F 30.0 °F 85% 30.33 in 10.0 mi North 9.2 mph - N/A   Overcast
6:35 PM 34.0 °F 28.8 °F 29.5 °F 84% 30.36 in 10.0 mi North 5.8 mph - N/A   Overcast
6:55 PM 33.8 °F 28.6 °F 29.1 °F 83% 30.35 in 10.0 mi NNE 5.8 mph - N/A   Overcast
7:15 PM 33.4 °F 26.6 °F 29.3 °F 85% 30.34 in 10.0 mi NE 8.1 mph - N/A   Overcast
7:35 PM 32.5 °F 27.1 °F 29.3 °F 88% 30.35 in 7.0 mi NNE 5.8 mph - N/A   Overcast
7:55 PM 32.0 °F 27.5 °F 29.7 °F 91% 30.34 in 2.5 mi ENE 4.6 mph - N/A Snow Light Snow
8:15 PM 31.8 °F - 30.7 °F 96% 30.35 in 3.0 mi Calm Calm - N/A   Overcast
8:35 PM 31.8 °F - 31.1 °F 97% 30.34 in 3.0 mi Calm Calm - N/A   Overcast
8:55 PM 32.0 °F 26.4 °F 31.5 °F 98% 30.29 in 5.0 mi ESE 5.8 mph - N/A   Overcast
9:15 PM 32.0 °F 27.5 °F 31.5 °F 98% 30.28 in 7.0 mi ESE 4.6 mph - N/A   Overcast
9:35 PM 32.0 °F 27.5 °F 31.6 °F 99% 30.26 in 7.0 mi East 4.6 mph - N/A   Overcast
9:55 PM 32.0 °F 28.7 °F 31.8 °F 99% 30.25 in 5.0 mi East 3.5 mph - N/A   Overcast
10:15 PM 32.0 °F - 32.0 °F 100% 30.24 in 4.0 mi Calm Calm - N/A   Overcast
10:35 PM 32.2 °F 28.9 °F 32.0 °F 99% 30.25 in 5.0 mi North 3.5 mph - N/A   Overcast
10:55 PM 32.0 °F 27.5 °F 32.0 °F 100% 30.24 in 5.0 mi NNE 4.6 mph - N/A   Overcast
11:15 PM 32.0 °F 25.6 °F 32.0 °F 100% 30.23 in 4.0 mi NNE 6.9 mph - N/A   Overcast
11:35 PM 32.0 °F 27.5 °F 32.0 °F 100% 30.23 in 4.0 mi North 4.6 mph - N/A   Overcast
11:55 PM 32.0 °F 24.8 °F 32.0 °F 100% 30.22 in 3.0 mi NNE 8.1 mph - N/A   Overcast